AAL1213 KPHX-MMPR

Flight info

Callsign AAL1213
Flight time 2h 9m
Altitude 35000
Route STRRM1 TUS J92 VYLLA UT12 CUL UJ7 MZT J141 OBRUG OBRUG1A
Aircraft B738/M-SDE2E3FGHIRWXY/LB1

Departure

Time 2026-04-16 10:39
Airport Phoenix Sky Harbor International Airport (KPHX)

Arrival

Time 2026-04-16 12:49
Airport Puerto Vallarta International Airport (MMPR)
Time Latitude Longitude Altitude Speed Heading
2026-04-16 10:10 33.43649 -112.00246 1123 ft 0 kts 90°
2026-04-16 10:27 33.43649 -112.00253 1123 ft 4 kts 90°
2026-04-16 10:27 33.43649 -112.00285 1120 ft 4 kts 90°
2026-04-16 10:27 33.43650 -112.00318 1116 ft 4 kts 90°
2026-04-16 10:28 33.43650 -112.00350 1116 ft 3 kts 90°
2026-04-16 10:28 33.43650 -112.00354 1116 ft 1 kts 90°
2026-04-16 10:30 33.43650 -112.00352 1116 ft 1 kts 89°
2026-04-16 10:30 33.43656 -112.00344 1118 ft 2 kts 41°
2026-04-16 10:30 33.43671 -112.00350 1118 ft 3 kts 329°
2026-04-16 10:30 33.43693 -112.00363 1116 ft 4 kts 333°
2026-04-16 10:31 33.43722 -112.00376 1121 ft 5 kts 346°
2026-04-16 10:31 33.43759 -112.00380 1118 ft 6 kts 360°
2026-04-16 10:31 33.43802 -112.00380 1123 ft 7 kts 360°
2026-04-16 10:31 33.43855 -112.00380 1118 ft 8 kts
2026-04-16 10:32 33.43917 -112.00380 1118 ft 10 kts
2026-04-16 10:32 33.43973 -112.00424 1118 ft 11 kts 283°
2026-04-16 10:32 33.43974 -112.00524 1117 ft 13 kts 269°
2026-04-16 10:32 33.43974 -112.00631 1118 ft 13 kts 270°
2026-04-16 10:33 33.43974 -112.00755 1120 ft 16 kts 270°
2026-04-16 10:33 33.43974 -112.00904 1118 ft 20 kts 270°
2026-04-16 10:33 33.43975 -112.01062 1118 ft 19 kts 270°
2026-04-16 10:33 33.43974 -112.01235 1118 ft 22 kts 270°
2026-04-16 10:34 33.43975 -112.01406 1124 ft 19 kts 270°
2026-04-16 10:34 33.43975 -112.01576 1124 ft 22 kts 270°
2026-04-16 10:34 33.43975 -112.01763 1118 ft 17 kts 270°
2026-04-16 10:34 33.43975 -112.01918 1123 ft 20 kts 270°
2026-04-16 10:35 33.43975 -112.02091 1123 ft 17 kts 270°
2026-04-16 10:35 33.43975 -112.02245 1117 ft 20 kts 270°
2026-04-16 10:35 33.43976 -112.02410 1116 ft 15 kts 270°
2026-04-16 10:35 33.43976 -112.02536 1117 ft 15 kts 270°
2026-04-16 10:36 33.43977 -112.02632 1123 ft 9 kts 279°
2026-04-16 10:36 33.44023 -112.02669 1118 ft 7 kts 354°
2026-04-16 10:36 33.44063 -112.02671 1118 ft 4 kts 358°
2026-04-16 10:36 33.44085 -112.02659 1123 ft 4 kts 73°
2026-04-16 10:37 33.44086 -112.02623 1123 ft 4 kts 88°
2026-04-16 10:37 33.44086 -112.02622 1123 ft 0 kts 88°
2026-04-16 10:38 33.44086 -112.02569 1122 ft 29 kts 90°
2026-04-16 10:39 33.44086 -112.02022 1122 ft 101 kts 90°
2026-04-16 10:39 33.44085 -112.00923 1126 ft 161 kts 90°
2026-04-16 10:39 33.44086 -111.99550 1673 ft 172 kts 90°
2026-04-16 10:39 33.44075 -111.98110 2355 ft 179 kts 92°
2026-04-16 10:40 33.44011 -111.96504 2790 ft 206 kts 93°
2026-04-16 10:40 33.43918 -111.94686 3062 ft 229 kts 93°
2026-04-16 10:40 33.43805 -111.92745 3585 ft 237 kts 94°
2026-04-16 10:40 33.43683 -111.90757 4260 ft 241 kts 94°
2026-04-16 10:41 33.43544 -111.88747 5029 ft 245 kts 99°
2026-04-16 10:41 33.42848 -111.86837 5370 ft 269 kts 132°
2026-04-16 10:41 33.41401 -111.85320 6073 ft 277 kts 141°
2026-04-16 10:41 33.39897 -111.83855 6887 ft 280 kts 141°
2026-04-16 10:42 33.38391 -111.82368 7711 ft 282 kts 141°
2026-04-16 10:42 33.36842 -111.80964 8500 ft 286 kts 153°
2026-04-16 10:42 33.34930 -111.80379 9298 ft 286 kts 180°
2026-04-16 10:42 33.32956 -111.80688 10110 ft 288 kts 193°
2026-04-16 10:43 33.30959 -111.81229 10529 ft 305 kts 194°
2026-04-16 10:43 33.28807 -111.81841 10707 ft 329 kts 194°
2026-04-16 10:43 33.26510 -111.82487 11009 ft 347 kts 194°
2026-04-16 10:43 33.24135 -111.83136 11614 ft 353 kts 194°
2026-04-16 10:44 33.21722 -111.83783 12355 ft 356 kts 194°
2026-04-16 10:44 33.19293 -111.84427 13099 ft 359 kts 194°
2026-04-16 10:44 33.16838 -111.85078 13772 ft 364 kts 195°
2026-04-16 10:44 33.14444 -111.86061 14355 ft 365 kts 211°
2026-04-16 10:45 33.12287 -111.87637 15016 ft 366 kts 214°
2026-04-16 10:45 33.10114 -111.89255 15658 ft 370 kts 214°
2026-04-16 10:45 33.07904 -111.90868 16283 ft 374 kts 213°
2026-04-16 10:45 33.05665 -111.92475 16904 ft 377 kts 213°
2026-04-16 10:46 33.03403 -111.94088 17532 ft 381 kts 213°
2026-04-16 10:46 33.00950 -111.95332 18114 ft 391 kts 194°
2026-04-16 10:46 32.98269 -111.95512 18645 ft 400 kts 176°
2026-04-16 10:46 32.95574 -111.94618 19179 ft 407 kts 159°
2026-04-16 10:47 32.92979 -111.93231 19727 ft 410 kts 158°
2026-04-16 10:47 32.90367 -111.91822 20228 ft 414 kts 158°
2026-04-16 10:47 32.87879 -111.90055 20678 ft 423 kts 141°
2026-04-16 10:47 32.85812 -111.87539 21203 ft 427 kts 134°
2026-04-16 10:48 32.83799 -111.84925 21698 ft 430 kts 134°
2026-04-16 10:48 32.81772 -111.82287 22156 ft 434 kts 134°
2026-04-16 10:48 32.79719 -111.79630 22616 ft 438 kts 135°
2026-04-16 10:48 32.77644 -111.76965 23062 ft 441 kts 135°
2026-04-16 10:49 32.75547 -111.74289 23522 ft 444 kts 135°
2026-04-16 10:49 32.73430 -111.71598 23900 ft 447 kts 135°
2026-04-16 10:49 32.71298 -111.68898 24293 ft 449 kts 136°
2026-04-16 10:49 32.69156 -111.66188 24675 ft 452 kts 136°
2026-04-16 10:50 32.67000 -111.63464 25045 ft 454 kts 136°
2026-04-16 10:50 32.64829 -111.60723 25425 ft 456 kts 136°
2026-04-16 10:50 32.62652 -111.57976 25802 ft 459 kts 136°
2026-04-16 10:50 32.60459 -111.55210 26159 ft 461 kts 136°
2026-04-16 10:51 32.58257 -111.52435 26515 ft 464 kts 136°
2026-04-16 10:51 32.56069 -111.49679 26863 ft 466 kts 136°
2026-04-16 10:51 32.53843 -111.46877 27220 ft 468 kts 136°
2026-04-16 10:51 32.51579 -111.44029 27563 ft 470 kts 137°
2026-04-16 10:52 32.49329 -111.41203 27904 ft 472 kts 137°
2026-04-16 10:52 32.47073 -111.38369 28217 ft 474 kts 137°
2026-04-16 10:52 32.44831 -111.35557 28523 ft 477 kts 137°
2026-04-16 10:52 32.42547 -111.32693 28823 ft 479 kts 137°
2026-04-16 10:53 32.40260 -111.29827 29126 ft 480 kts 137°
2026-04-16 10:53 32.37967 -111.26956 29544 ft 479 kts 137°
2026-04-16 10:53 32.35696 -111.24113 30032 ft 477 kts 137°
2026-04-16 10:53 32.33423 -111.21270 30436 ft 475 kts 137°
2026-04-16 10:54 32.31156 -111.18439 30788 ft 474 kts 137°
2026-04-16 10:54 32.28895 -111.15617 31115 ft 473 kts 137°
2026-04-16 10:54 32.26636 -111.12801 31465 ft 472 kts 138°
2026-04-16 10:54 32.24380 -111.09989 31838 ft 470 kts 138°
2026-04-16 10:55 32.22135 -111.07194 32223 ft 468 kts 138°
2026-04-16 10:55 32.19891 -111.04402 32546 ft 468 kts 138°
2026-04-16 10:55 32.17656 -111.01623 32883 ft 467 kts 138°
2026-04-16 10:55 32.15428 -110.98855 33234 ft 465 kts 138°
2026-04-16 10:56 32.13195 -110.96083 33580 ft 464 kts 138°
2026-04-16 10:56 32.10773 -110.93648 33831 ft 453 kts 155°
2026-04-16 10:56 32.07936 -110.92178 34122 ft 440 kts 170°
2026-04-16 10:56 32.04960 -110.91602 34386 ft 428 kts 184°
2026-04-16 10:57 32.02004 -110.91671 34633 ft 425 kts 187°
2026-04-16 10:57 31.99129 -110.91835 34818 ft 425 kts 188°
2026-04-16 10:57 31.96173 -110.92024 34991 ft 426 kts 188°
2026-04-16 10:57 31.93203 -110.92208 34978 ft 429 kts 188°
2026-04-16 10:58 31.87238 -110.92530 34961 ft 428 kts 187°
2026-04-16 10:58 31.81337 -110.92806 34943 ft 422 kts 187°
2026-04-16 10:59 31.75482 -110.93073 34936 ft 421 kts 187°
2026-04-16 10:59 31.69626 -110.93341 34964 ft 420 kts 187°
2026-04-16 11:00 31.63784 -110.93609 34997 ft 421 kts 187°
2026-04-16 11:00 31.57931 -110.93877 35018 ft 421 kts 187°
2026-04-16 11:01 31.52114 -110.94142 35043 ft 421 kts 187°
2026-04-16 11:01 31.46219 -110.94411 35065 ft 422 kts 187°
2026-04-16 11:02 31.40349 -110.94679 35069 ft 422 kts 187°
2026-04-16 11:02 31.34499 -110.94502 35051 ft 430 kts 174°
2026-04-16 11:03 31.28755 -110.92339 35035 ft 441 kts 158°
2026-04-16 11:04 31.20620 -110.87263 35016 ft 442 kts 157°
2026-04-16 11:04 31.15198 -110.83852 34992 ft 443 kts 157°
2026-04-16 11:05 31.09758 -110.80479 34961 ft 443 kts 158°
2026-04-16 11:05 31.04296 -110.77119 34947 ft 443 kts 158°
2026-04-16 11:06 30.98914 -110.73815 34948 ft 442 kts 158°
2026-04-16 11:06 30.93513 -110.70504 34939 ft 440 kts 158°
2026-04-16 11:07 30.88095 -110.67186 34944 ft 440 kts 158°
2026-04-16 11:07 30.82685 -110.63878 34940 ft 439 kts 158°
2026-04-16 11:08 30.77284 -110.60578 34949 ft 438 kts 158°
2026-04-16 11:08 30.71881 -110.57282 34965 ft 438 kts 158°
2026-04-16 11:09 30.67397 -110.54550 34945 ft 438 kts 158°
2026-04-16 11:09 30.61131 -110.50736 34956 ft 437 kts 159°
2026-04-16 11:10 30.56623 -110.47996 34951 ft 437 kts 159°
2026-04-16 11:10 30.51227 -110.44720 34951 ft 437 kts 159°
2026-04-16 11:11 30.45836 -110.41451 34954 ft 437 kts 159°
2026-04-16 11:11 30.40451 -110.38189 34954 ft 437 kts 159°
2026-04-16 11:12 30.35065 -110.34931 34954 ft 436 kts 159°
2026-04-16 11:12 30.29731 -110.31709 34959 ft 435 kts 159°
2026-04-16 11:13 30.24367 -110.28472 34957 ft 435 kts 160°
2026-04-16 11:13 30.18998 -110.25237 34948 ft 435 kts 160°
2026-04-16 11:14 30.13642 -110.22013 34955 ft 434 kts 160°
2026-04-16 11:14 30.08288 -110.18794 34949 ft 433 kts 160°
2026-04-16 11:15 30.02940 -110.15583 34964 ft 433 kts 160°
2026-04-16 11:15 29.97660 -110.12417 34950 ft 433 kts 160°
2026-04-16 11:16 29.92311 -110.09213 34955 ft 433 kts 160°
2026-04-16 11:16 29.86967 -110.06015 34953 ft 432 kts 160°
2026-04-16 11:17 29.81636 -110.02829 34968 ft 431 kts 160°
2026-04-16 11:17 29.76310 -109.99650 34954 ft 431 kts 160°
2026-04-16 11:18 29.70987 -109.96477 34966 ft 431 kts 160°
2026-04-16 11:18 29.65696 -109.93331 34962 ft 430 kts 161°
2026-04-16 11:19 29.60374 -109.90170 34964 ft 430 kts 161°
2026-04-16 11:19 29.55057 -109.87015 34959 ft 430 kts 161°
2026-04-16 11:20 29.49746 -109.83867 34963 ft 429 kts 161°
2026-04-16 11:20 29.44443 -109.80726 34689 ft 429 kts 161°
2026-04-16 11:21 29.39153 -109.77596 34853 ft 426 kts 160°
2026-04-16 11:21 29.33905 -109.74497 34948 ft 427 kts 160°
2026-04-16 11:22 29.28595 -109.71368 34968 ft 431 kts 160°
2026-04-16 11:22 29.23255 -109.68223 34974 ft 435 kts 160°
2026-04-16 11:23 29.17845 -109.65039 34959 ft 439 kts 160°
2026-04-16 11:23 29.12403 -109.61838 34964 ft 441 kts 160°
2026-04-16 11:24 29.06948 -109.58632 34965 ft 440 kts 160°
2026-04-16 11:24 29.01522 -109.55445 34977 ft 437 kts 161°
2026-04-16 11:25 28.96170 -109.52308 34991 ft 435 kts 161°
2026-04-16 11:25 28.90822 -109.49180 34973 ft 434 kts 161°
2026-04-16 11:26 28.85467 -109.46049 34978 ft 430 kts 161°
2026-04-16 11:26 28.80153 -109.42946 34998 ft 428 kts 161°
2026-04-16 11:27 28.74831 -109.39845 34977 ft 430 kts 161°
2026-04-16 11:27 28.69470 -109.36724 34986 ft 430 kts 161°
2026-04-16 11:28 28.64132 -109.33619 34996 ft 432 kts 161°
2026-04-16 11:28 28.58810 -109.30527 34995 ft 434 kts 161°
2026-04-16 11:29 28.53419 -109.27398 35001 ft 435 kts 161°
2026-04-16 11:29 28.48010 -109.24262 34995 ft 437 kts 161°
2026-04-16 11:30 28.42583 -109.21117 35011 ft 438 kts 161°
2026-04-16 11:30 28.37149 -109.17972 35015 ft 438 kts 161°
2026-04-16 11:31 28.31712 -109.14829 35016 ft 438 kts 161°
2026-04-16 11:31 28.26267 -109.11688 35015 ft 439 kts 161°
2026-04-16 11:32 28.20815 -109.08550 35020 ft 440 kts 162°
2026-04-16 11:32 28.15355 -109.05409 35010 ft 440 kts 162°
2026-04-16 11:33 28.09904 -109.02275 35012 ft 438 kts 162°
2026-04-16 11:33 28.04472 -108.99156 35015 ft 437 kts 162°
2026-04-16 11:34 27.99108 -108.96079 35010 ft 437 kts 162°
2026-04-16 11:34 27.93727 -108.92997 35017 ft 436 kts 162°
2026-04-16 11:35 27.88308 -108.89898 35010 ft 437 kts 162°
2026-04-16 11:35 27.82892 -108.86802 35025 ft 435 kts 162°
2026-04-16 11:36 27.77485 -108.83713 35022 ft 435 kts 162°
2026-04-16 11:36 27.72071 -108.80627 35014 ft 436 kts 162°
2026-04-16 11:37 27.66645 -108.77538 35016 ft 437 kts 162°
2026-04-16 11:37 27.61212 -108.74447 35014 ft 438 kts 162°
2026-04-16 11:38 27.55762 -108.71349 35012 ft 439 kts 162°
2026-04-16 11:38 27.50304 -108.68250 34997 ft 438 kts 162°
2026-04-16 11:39 27.44854 -108.65158 35020 ft 439 kts 162°
2026-04-16 11:39 27.39423 -108.62084 35013 ft 440 kts 162°
2026-04-16 11:40 27.33969 -108.58994 35026 ft 438 kts 163°
2026-04-16 11:40 27.28522 -108.55916 35026 ft 438 kts 163°
2026-04-16 11:41 27.23097 -108.52850 35017 ft 435 kts 163°
2026-04-16 11:41 27.17676 -108.49797 35026 ft 436 kts 163°
2026-04-16 11:42 27.12220 -108.46727 35024 ft 440 kts 163°
2026-04-16 11:42 27.06720 -108.43633 35024 ft 444 kts 163°
2026-04-16 11:43 27.01172 -108.40515 35008 ft 447 kts 163°
2026-04-16 11:43 26.95672 -108.37424 34998 ft 447 kts 163°
2026-04-16 11:44 26.90154 -108.34325 35002 ft 445 kts 163°
2026-04-16 11:44 26.84616 -108.31221 35007 ft 445 kts 163°
2026-04-16 11:45 26.79084 -108.28127 34994 ft 444 kts 163°
2026-04-16 11:45 26.73561 -108.25038 34970 ft 442 kts 163°
2026-04-16 11:46 26.68074 -108.21972 35011 ft 440 kts 163°
2026-04-16 11:46 26.62590 -108.18915 35000 ft 441 kts 163°
2026-04-16 11:47 26.57048 -108.16004 35003 ft 434 kts 169°
2026-04-16 11:47 26.51365 -108.13807 35015 ft 432 kts 171°
2026-04-16 11:48 26.45655 -108.11703 35015 ft 433 kts 171°
2026-04-16 11:48 26.39943 -108.09552 35018 ft 434 kts 170°
2026-04-16 11:49 26.34206 -108.07359 35001 ft 436 kts 170°
2026-04-16 11:49 26.28461 -108.05154 34991 ft 436 kts 170°
2026-04-16 11:50 26.22729 -108.02956 34997 ft 436 kts 170°
2026-04-16 11:50 26.16990 -108.00760 35002 ft 436 kts 170°
2026-04-16 11:51 26.11259 -107.98570 34981 ft 435 kts 170°
2026-04-16 11:51 26.05588 -107.96404 34964 ft 432 kts 170°
2026-04-16 11:52 25.99990 -107.94270 34977 ft 432 kts 170°
2026-04-16 11:52 25.94288 -107.92098 34962 ft 430 kts 170°
2026-04-16 11:53 25.88642 -107.89949 34979 ft 428 kts 170°
2026-04-16 11:53 25.83002 -107.87807 34979 ft 429 kts 170°
2026-04-16 11:54 25.77337 -107.85659 34970 ft 430 kts 170°
2026-04-16 11:54 25.71667 -107.83508 34971 ft 431 kts 170°
2026-04-16 11:55 25.65981 -107.81354 34962 ft 432 kts 170°
2026-04-16 11:55 25.60320 -107.79210 34968 ft 432 kts 170°
2026-04-16 11:56 25.55545 -107.77403 34979 ft 433 kts 170°
2026-04-16 11:56 25.48911 -107.74896 34959 ft 434 kts 169°
2026-04-16 11:57 25.44120 -107.73087 34957 ft 434 kts 169°
2026-04-16 11:57 25.38448 -107.70948 34947 ft 434 kts 169°
2026-04-16 11:58 25.32699 -107.68781 34957 ft 433 kts 169°
2026-04-16 11:58 25.27037 -107.66650 34959 ft 432 kts 169°
2026-04-16 11:59 25.21342 -107.64508 34948 ft 432 kts 169°
2026-04-16 11:59 25.15666 -107.62376 34950 ft 431 kts 169°
2026-04-16 12:00 25.09990 -107.60248 34948 ft 430 kts 169°
2026-04-16 12:00 25.04329 -107.58130 34949 ft 429 kts 169°
2026-04-16 12:01 24.98679 -107.56016 34947 ft 428 kts 169°
2026-04-16 12:01 24.93031 -107.53906 34945 ft 428 kts 169°
2026-04-16 12:02 24.84560 -107.50743 34946 ft 429 kts 169°
2026-04-16 12:02 24.78914 -107.48638 34943 ft 429 kts 169°
2026-04-16 12:03 24.73497 -107.45638 34947 ft 446 kts 154°
2026-04-16 12:03 24.68415 -107.41689 34937 ft 448 kts 153°
2026-04-16 12:04 24.63366 -107.37753 34942 ft 448 kts 153°
2026-04-16 12:04 24.58254 -107.33830 34943 ft 448 kts 153°
2026-04-16 12:05 24.53130 -107.29925 34943 ft 448 kts 153°
2026-04-16 12:05 24.48004 -107.26020 34940 ft 449 kts 153°
2026-04-16 12:06 24.42869 -107.22111 34945 ft 449 kts 153°
2026-04-16 12:06 24.37737 -107.18216 34943 ft 448 kts 153°
2026-04-16 12:07 24.32602 -107.14328 34942 ft 448 kts 153°
2026-04-16 12:07 24.27465 -107.10441 34940 ft 448 kts 153°
2026-04-16 12:08 24.22333 -107.06560 34942 ft 448 kts 153°
2026-04-16 12:08 24.17201 -107.02682 34937 ft 448 kts 153°
2026-04-16 12:09 24.12067 -106.98806 34941 ft 448 kts 153°
2026-04-16 12:09 24.06963 -106.94957 34940 ft 448 kts 153°
2026-04-16 12:10 24.01829 -106.91088 34938 ft 448 kts 153°
2026-04-16 12:10 23.96755 -106.87269 34941 ft 447 kts 153°
2026-04-16 12:11 23.91622 -106.83414 34942 ft 447 kts 153°
2026-04-16 12:11 23.86519 -106.79587 34932 ft 447 kts 153°
2026-04-16 12:12 23.81385 -106.75738 34938 ft 447 kts 153°
2026-04-16 12:12 23.76250 -106.71893 34937 ft 447 kts 153°
2026-04-16 12:13 23.71111 -106.68047 34933 ft 448 kts 153°
2026-04-16 12:13 23.65969 -106.64201 34939 ft 448 kts 154°
2026-04-16 12:14 23.60852 -106.60378 34941 ft 448 kts 154°
2026-04-16 12:14 23.55706 -106.56539 34938 ft 449 kts 154°
2026-04-16 12:15 23.50549 -106.52697 34939 ft 449 kts 154°
2026-04-16 12:15 23.45389 -106.48853 34937 ft 449 kts 154°
2026-04-16 12:16 23.40228 -106.45012 34941 ft 449 kts 154°
2026-04-16 12:16 23.35065 -106.41174 34942 ft 449 kts 154°
2026-04-16 12:17 23.29937 -106.37365 34941 ft 449 kts 154°
2026-04-16 12:17 23.24765 -106.33525 34951 ft 450 kts 154°
2026-04-16 12:18 23.19595 -106.29691 34936 ft 450 kts 154°
2026-04-16 12:18 23.14294 -106.26214 34939 ft 437 kts 165°
2026-04-16 12:19 23.08662 -106.23835 34935 ft 433 kts 167°
2026-04-16 12:19 23.03017 -106.21515 34942 ft 433 kts 167°
2026-04-16 12:20 22.97451 -106.19181 34939 ft 433 kts 167°
2026-04-16 12:20 22.91835 -106.16801 34941 ft 433 kts 166°
2026-04-16 12:21 22.86219 -106.14418 34937 ft 433 kts 166°
2026-04-16 12:21 22.80610 -106.12042 34939 ft 433 kts 166°
2026-04-16 12:22 22.74998 -106.09668 34939 ft 432 kts 166°
2026-04-16 12:22 22.69424 -106.07312 34937 ft 432 kts 166°
2026-04-16 12:23 22.63870 -106.04963 34930 ft 424 kts 166°
2026-04-16 12:23 22.58406 -106.02655 34933 ft 421 kts 166°
2026-04-16 12:24 22.55674 -106.01505 34730 ft 423 kts 166°
2026-04-16 12:24 22.52939 -106.00354 34452 ft 418 kts 166°
2026-04-16 12:24 22.50305 -105.99241 34060 ft 415 kts 166°
2026-04-16 12:24 22.47630 -105.98113 33668 ft 412 kts 166°
2026-04-16 12:25 22.44967 -105.96991 33247 ft 409 kts 166°
2026-04-16 12:25 22.42326 -105.95879 32846 ft 406 kts 166°
2026-04-16 12:25 22.39709 -105.94778 32448 ft 402 kts 166°
2026-04-16 12:25 22.37107 -105.93683 32068 ft 400 kts 166°
2026-04-16 12:26 22.34538 -105.92606 31706 ft 404 kts 166°
2026-04-16 12:26 22.31899 -105.91501 31317 ft 407 kts 165°
2026-04-16 12:26 22.29270 -105.90396 30921 ft 404 kts 165°
2026-04-16 12:26 22.26659 -105.89298 30546 ft 402 kts 165°
2026-04-16 12:27 22.24058 -105.88205 30155 ft 401 kts 165°
2026-04-16 12:27 22.21466 -105.87116 29726 ft 398 kts 165°
2026-04-16 12:27 22.18889 -105.86035 29304 ft 396 kts 165°
2026-04-16 12:27 22.16335 -105.84964 28890 ft 393 kts 165°
2026-04-16 12:28 22.13795 -105.83899 28485 ft 389 kts 164°
2026-04-16 12:28 22.11274 -105.82842 28095 ft 386 kts 164°
2026-04-16 12:28 22.08779 -105.81797 27710 ft 383 kts 164°
2026-04-16 12:28 22.06298 -105.80759 27328 ft 381 kts 164°
2026-04-16 12:29 22.03836 -105.79728 26951 ft 378 kts 164°
2026-04-16 12:29 22.01392 -105.78705 26576 ft 376 kts 163°
2026-04-16 12:29 21.99046 -105.77724 26218 ft 374 kts 163°
2026-04-16 12:29 21.96628 -105.76713 25848 ft 372 kts 163°
2026-04-16 12:30 21.94222 -105.75707 25480 ft 370 kts 163°
2026-04-16 12:30 21.91825 -105.74706 25108 ft 368 kts 163°
2026-04-16 12:30 21.89438 -105.73709 24726 ft 367 kts 163°
2026-04-16 12:30 21.87061 -105.72715 24354 ft 366 kts 162°
2026-04-16 12:31 21.84692 -105.71726 23981 ft 365 kts 162°
2026-04-16 12:31 21.82323 -105.70738 23601 ft 364 kts 162°
2026-04-16 12:31 21.79966 -105.69754 23182 ft 363 kts 162°
2026-04-16 12:31 21.77631 -105.68713 22754 ft 363 kts 157°
2026-04-16 12:32 21.75417 -105.67392 22297 ft 365 kts 152°
2026-04-16 12:32 21.73266 -105.65943 21857 ft 365 kts 150°
2026-04-16 12:32 21.71128 -105.64463 21419 ft 364 kts 150°
2026-04-16 12:32 21.68993 -105.62993 20976 ft 364 kts 150°
2026-04-16 12:33 21.66855 -105.61540 20537 ft 364 kts 150°
2026-04-16 12:33 21.64711 -105.60102 20089 ft 363 kts 151°
2026-04-16 12:33 21.62563 -105.58673 19663 ft 363 kts 151°
2026-04-16 12:33 21.60410 -105.57250 19209 ft 363 kts 151°
2026-04-16 12:34 21.58254 -105.55828 18765 ft 364 kts 151°
2026-04-16 12:34 21.56097 -105.54408 18300 ft 364 kts 150°
2026-04-16 12:34 21.53925 -105.52981 17747 ft 366 kts 150°
2026-04-16 12:34 21.51786 -105.51574 17281 ft 363 kts 150°
2026-04-16 12:35 21.49659 -105.50175 16814 ft 354 kts 150°
2026-04-16 12:35 21.47589 -105.48814 16383 ft 344 kts 150°
2026-04-16 12:35 21.45569 -105.47487 15973 ft 336 kts 150°
2026-04-16 12:35 21.43602 -105.46195 15571 ft 328 kts 150°
2026-04-16 12:36 21.41680 -105.44934 15180 ft 320 kts 150°
2026-04-16 12:36 21.39794 -105.43697 14798 ft 315 kts 150°
2026-04-16 12:36 21.37932 -105.42476 14431 ft 312 kts 150°
2026-04-16 12:36 21.36084 -105.41265 14058 ft 310 kts 150°
2026-04-16 12:37 21.34247 -105.40061 13663 ft 309 kts 150°
2026-04-16 12:37 21.32418 -105.38862 13257 ft 307 kts 150°
2026-04-16 12:37 21.30592 -105.37666 12868 ft 305 kts 150°
2026-04-16 12:37 21.28786 -105.36484 12514 ft 303 kts 150°
2026-04-16 12:38 21.26991 -105.35309 12164 ft 301 kts 149°
2026-04-16 12:38 21.25206 -105.34142 11828 ft 300 kts 149°
2026-04-16 12:38 21.23431 -105.32981 11493 ft 299 kts 149°
2026-04-16 12:38 21.21654 -105.31818 11156 ft 298 kts 149°
2026-04-16 12:39 21.19885 -105.30662 10820 ft 297 kts 149°
2026-04-16 12:39 21.18119 -105.29508 10483 ft 297 kts 149°
2026-04-16 12:39 21.16368 -105.28363 10131 ft 292 kts 149°
2026-04-16 12:39 21.14653 -105.27242 9799 ft 286 kts 149°
2026-04-16 12:40 21.12969 -105.26141 9449 ft 281 kts 149°
2026-04-16 12:40 21.11305 -105.25055 9119 ft 280 kts 149°
2026-04-16 12:40 21.09639 -105.23968 8804 ft 281 kts 149°
2026-04-16 12:40 21.07965 -105.22875 8482 ft 282 kts 149°
2026-04-16 12:41 21.06282 -105.21777 8164 ft 284 kts 148°
2026-04-16 12:41 21.04587 -105.20671 7842 ft 286 kts 148°
2026-04-16 12:41 21.02884 -105.19560 7517 ft 287 kts 148°
2026-04-16 12:41 21.01206 -105.18465 7189 ft 283 kts 148°
2026-04-16 12:42 20.99535 -105.17375 6886 ft 279 kts 147°
2026-04-16 12:42 20.97876 -105.16292 6528 ft 278 kts 147°
2026-04-16 12:42 20.96231 -105.15222 6224 ft 275 kts 147°
2026-04-16 12:42 20.94601 -105.14161 5894 ft 272 kts 147°
2026-04-16 12:43 20.92993 -105.13114 5576 ft 269 kts 147°
2026-04-16 12:43 20.91431 -105.12043 5260 ft 265 kts 141°
2026-04-16 12:43 20.90014 -105.10820 4968 ft 258 kts 138°
2026-04-16 12:43 20.88671 -105.09607 4659 ft 248 kts 138°
2026-04-16 12:44 20.87805 -105.08829 4460 ft 243 kts 138°
2026-04-16 12:44 20.86501 -105.07731 4133 ft 236 kts 149°
2026-04-16 12:44 20.84960 -105.07336 3893 ft 226 kts 185°
2026-04-16 12:44 20.83503 -105.07837 3619 ft 219 kts 213°
2026-04-16 12:45 20.82355 -105.08874 3431 ft 215 kts 227°
2026-04-16 12:45 20.81340 -105.10038 3192 ft 212 kts 228°
2026-04-16 12:45 20.80359 -105.11187 2984 ft 207 kts 228°
2026-04-16 12:45 20.79392 -105.12323 2733 ft 205 kts 228°
2026-04-16 12:46 20.78430 -105.13437 2514 ft 203 kts 227°
2026-04-16 12:46 20.77473 -105.14543 2282 ft 202 kts 227°
2026-04-16 12:46 20.76528 -105.15641 2061 ft 199 kts 227°
2026-04-16 12:46 20.75585 -105.16720 1840 ft 197 kts 227°
2026-04-16 12:47 20.74678 -105.17763 1598 ft 185 kts 227°
2026-04-16 12:47 20.73835 -105.18731 1398 ft 170 kts 227°
2026-04-16 12:47 20.73059 -105.19621 1133 ft 157 kts 227°
2026-04-16 12:47 20.72342 -105.20444 959 ft 152 kts 227°
2026-04-16 12:48 20.71621 -105.21271 741 ft 151 kts 227°
2026-04-16 12:48 20.70911 -105.22087 539 ft 148 kts 227°
2026-04-16 12:48 20.70229 -105.22875 403 ft 143 kts 227°
2026-04-16 12:48 20.69560 -105.23644 243 ft 140 kts 226°
2026-04-16 12:49 20.68901 -105.24393 48 ft 138 kts 227°
2026-04-16 12:49 20.68311 -105.25071 27 ft 104 kts 227°
2026-04-16 12:49 20.67945 -105.25491 30 ft 39 kts 227°
2026-04-16 12:49 20.67770 -105.25623 28 ft 19 kts 203°
2026-04-16 12:50 20.67675 -105.25656 28 ft 12 kts 197°
2026-04-16 12:50 20.67611 -105.25645 28 ft 10 kts 124°
2026-04-16 12:50 20.67630 -105.25591 28 ft 8 kts 44°
2026-04-16 12:50 20.67671 -105.25546 28 ft 10 kts 47°
2026-04-16 12:51 20.67731 -105.25477 28 ft 16 kts 47°
2026-04-16 12:51 20.67820 -105.25375 28 ft 21 kts 47°
2026-04-16 12:51 20.67904 -105.25279 28 ft 16 kts 47°
2026-04-16 12:51 20.67971 -105.25202 28 ft 14 kts 47°
2026-04-16 12:52 20.68033 -105.25129 28 ft 13 kts 47°
2026-04-16 12:52 20.68094 -105.25060 28 ft 13 kts 46°
2026-04-16 12:52 20.68154 -105.24992 28 ft 12 kts 47°
2026-04-16 12:52 20.68208 -105.24930 28 ft 9 kts 47°
2026-04-16 12:53 20.68250 -105.24880 28 ft 9 kts 47°
2026-04-16 12:53 20.68296 -105.24828 28 ft 10 kts 47°
2026-04-16 12:53 20.68291 -105.24784 28 ft 7 kts 144°
2026-04-16 12:53 20.68253 -105.24752 28 ft 7 kts 138°
2026-04-16 12:54 20.68218 -105.24719 28 ft 7 kts 138°
2026-04-16 12:54 20.68187 -105.24690 28 ft 3 kts 137°
2026-04-16 12:54 20.68174 -105.24676 28 ft 3 kts 137°
2026-04-16 12:54 20.68160 -105.24663 28 ft 3 kts 137°
2026-04-16 12:55 20.68143 -105.24646 28 ft 3 kts 136°
2026-04-16 12:55 20.68125 -105.24635 28 ft 3 kts 179°
2026-04-16 12:55 20.68109 -105.24650 28 ft 3 kts 225°